SL-12 R/B(AUX MOTOR), 37144

Orbit data source: Space-Track

SL-12 R/B(AUX MOTOR), 37144 is space debris in HEO originally from a launch on Thu, 02 Sep 2010 UTC launched from the Tyuratam Missile And Space Complex (TTMTR). Debris objects in space refer to the collection of defunct objects orbiting the Earth. Examples of debris include non-operational satellites, rocket bodies, and fragments generated from explosions, collisions, or faulty payload assembly.

Loading next visibility...
Identifier
37144, 2010-041H
Orbit
HEO
Country
Flag of CISCIS
Related business
Manufacturer
RKKE
Mission
Spacecraft
Bus & Motor
SOZ, Unknown motor
Mass
56 kg wet, 56 kg dry
Launch date (UTC)
2010-09-02 (15 years ago)
Launch vehicle
Unknown
Launch site
Tyuratam Missile And Space Complex (TTMTR)
Object type
Payload
Rocket body
Debris
Shape & HBR
Cyl, 0.6 m
Radar Cross Section
0.660 m², Medium (>0.1 m² and < 1m²)

Expand to show TLE details & history
Last TLE update: 2 days ago

TLE from 2 days ago
0 SL-12 R/B(AUX MOTOR)
1 37144U 10041H   25286.07777558  .00000055  00000-0  33523-3 0  9993
2 37144  64.7873 180.4698 5676516 318.7969  10.0370  4.24850643 94821
Epoch: 2025-10-13T01:51Z
TLE epoch observation values (Epoch: 2025-10-13T01:51:59.810Z)
Latitude
0.00025°
Longitude
130.57562°
Altitude
1,277.89 km
Speed
8.91 km/s
True Right ascension
12h 01m 50s
True Declination
0° 00' 01"
Sunlit
Object was in daylight at epoch
Visualization orbit readout
Latitude
Unknown
Longitude
Unknown
Altitude
Unknown
Speed
Unknown
Apparent Right ascension
Unknown
Apparent Declination
Unknown
Sunlit
N/A
Visualization observer readout
Local Sidereal Time
10:03:55
Azimuth
Unknown
Elevation
Unknown
Doppler factor
Unknown
Orbital elements
Apogee altitude
18,864.266 km
Perigee altitude
583.558 km
Semi-major axis
16,102.049 km
Eccentricity
0.56765
Inclination
64.7873°
RAAN
180.4698°
Arg. of periapsis
318.7969°
True anomaly
41.42945°
Mean anomaly
10.037°
Eccentric anomaly
22.46511°
Mean motion
1.06224 °/min
Orbital period
338.91 mins
BSTAR
0.00033523
Loading maneuver chart data...
Computing Atmospheric mass density...
Loading historical data...
Loading historical data...
Loading historical data...
Loading historical data...
Loading historical data...
Loading historical data...
Loading historical data...

Documentation

Showing up to 5 results
|